Lid_Strength_Index
14 16 18 16 15 15 16 17 18 17 15 16 17 17 16 15 15 16 17 17 17 16 15 14 14 14 15 15 14 13 13 12 12 12 11 10 11 10 9 8 6 6 6 6
16 17 14 13 13 15 16 18 19 17 15 16 17 17 16 15 15 15 16 16 16 16 16 15 15 15 15 15 15 13 13 13 12 11 11 11 10 9 9 8 6 6 6 6
17 15 13 14 15 15 17 17 18 18 17 16 18 19 17 15 15 15 15 15 16 16 16 16 16 16 16 16 15 13 14 13 12 11 11 11 10 9 9 8 8 7 6 7
15 13 14 16 16 16 18 15 15 17 19 21 18 23 19 17 16 15 16 17 17 16 16 16 16 16 16 15 14 14 13 13 12 12 12 12 13 12 11 9 8 8 7 7
17 16 17 16 16 14 17 15 16 17 19 20 20 22 19 17 18 17 17 17 17 17 17 17 16 15 15 14 15 15 14 13 13 12 13 13 13 12 10 10 10 9 9 8
17 14 15 15 14 14 14 16 17 18 19 27 21 21 21 20 17 17 17 17 17 18 17 17 16 15 15 15 15 15 14 14 13 13 13 14 14 13 12 11 11 11 10 10
18 17 15 14 17 15 16 18 26 26 28 26 20 22 20 17 16 16 16 16 17 17 18 17 17 16 16 16 16 14 15 14 14 14 14 14 14 13 13 12 12 13 12 11
21 22 17 14 16 17 18 18 23 27 26 23 20 23 19 16 15 15 15 16 17 18 18 17 17 16 16 16 16 15 15 15 15 14 14 14 13 13 12 12 13 13 13 12
20 20 17 16 15 16 18 21 18 25 29 26 22 20 17 17 17 18 17 17 18 18 17 17 16 17 17 17 16 16 15 15 15 15 15 15 14 13 13 13 13 13 13 12
17 22 18 17 16 16 18 17 22 24 28 29 23 21 19 19 18 18 18 18 18 18 17 17 17 17 17 17 16 15 15 16 15 15 15 15 15 14 14 14 15 14 14 14
16 19 20 18 19 20 20 22 21 20 21 25 27 22 17 17 18 18 18 18 18 18 17 17 17 18 18 17 17 16 16 16 16 16 16 16 16 16 15 15 16 16 15 15
17 19 23 21 19 19 19 20 20 24 24 23 24 24 18 18 17 16 17 18 18 17 17 17 17 18 18 18 18 17 17 17 17 17 17 17 17 17 17 17 17 17 17 16
17 22 27 22 21 21 20 19 19 23 24 25 26 21 18 19 18 17 18 18 18 18 18 17 18 18 18 18 18 18 18 18 18 18 19 18 18 18 18 19 18 18 18 17
14 20 22 20 19 20 21 20 19 22 27 26 22 19 17 19 19 18 18 18 18 18 18 18 18 18 19 18 19 19 19 19 19 19 20 20 20 20 20 20 22 21 19 17
19 22 23 23 20 20 20 20 19 21 19 22 17 20 16 17 19 18 17 18 19 18 18 18 18 19 19 20 20 21 20 20 20 21 23 25 22 22 23 24 25 23 21 20
20 24 22 24 21 21 22 20 20 19 20 20 19 20 16 16 17 18 18 18 18 18 18 18 18 18 18 19 23 22 25 23 21 25 29 28 27 25 25 27 26 25 23 21
22 22 25 26 22 25 26 22 20 20 21 19 20 16 17 18 17 17 18 18 18 18 18 18 18 18 18 20 21 27 27 24 27 27 30 30 30 29 27 26 26 24 23 22
23 22 23 26 26 25 19 20 18 18 17 17 17 15 16 18 17 16 17 17 17 17 18 18 18 19 20 21 24 26 27 29 30 30 30 30 30 29 27 27 25 25 23 23
22 20 23 24 26 19 19 21 20 20 18 16 17 16 15 18 18 17 16 16 16 17 17 17 18 21 23 24 26 28 30 32 30 30 30 30 29 29 29 26 25 24 21 19
20 21 20 26 24 24 20 20 19 18 20 15 16 15 18 19 20 16 17 16 18 17 17 20 22 23 25 27 27 27 30 29 29 29 28 29 28 27 28 27 24 24 21 17
24 24 21 21 19 21 18 20 19 20 16 18 17 17 19 18 17 19 18 20 18 19 21 22 23 24 25 27 26 27 28 27 26 25 26 27 26 24 24 22 20 20 19 18
21 21 21 21 20 20 19 20 17 15 18 18 19 19 18 19 19 20 21 21 22 23 22 23 24 26 28 27 25 26 26 26 25 24 23 24 24 20 20 21 19 18 18 18
19 18 19 17 17 18 18 16 16 18 18 18 19 18 18 20 20 21 22 22 23 23 24 24 25 27 27 26 23 24 25 25 25 24 25 25 23 19 19 20 19 19 18 18
19 18 16 16 15 17 19 18 18 18 18 19 18 19 19 20 21 22 22 22 23 23 24 24 25 26 27 25 22 22 24 24 26 26 25 24 23 21 20 18 18 19 20 20
17 17 18 17 15 18 17 17 17 17 18 20 21 20 19 20 20 21 22 22 23 23 24 25 24 25 25 24 23 24 24 25 26 26 24 22 22 23 21 19 20 18 18 17
17 18 17 16 13 14 12 16 16 18 19 19 20 22 20 19 21 21 22 22 23 24 24 25 25 25 25 24 25 25 25 25 25 25 24 24 23 24 22 22 22 16 15 14